Regional Weather Roundup
Issued by NWS

Home | Current Version | Previous Version | Graphics & Text | Print | Product List | Glossary Off
Versions: 1 2 3 4 5 6 7 8 9 10 11 12 13 14 15 16 17 18 19 20 21 22 23 24 25 26 27 28 29 30 31 32 33 34 35 36 37 38 39 40 41 42 43 44 45 46 47 48 49 50

000
ASUS43 KTOP 182008
RWRKS

WEATHER ROUNDUP FOR KANSAS
NATIONAL WEATHER SERVICE GOODLAND KS
300 PM CDT WED OCT 18 2017

NOTE:  "FAIR" INDICATES FEW OR NO CLOUDS BELOW 12,000 FEET WITH NO
SIGNIFICANT WEATHER AND/OR OBSTRUCTIONS TO VISIBILITY.

KSZ001>006-013>018-027>032-041>047-182100-
NORTHWEST KANSAS

CITY           SKY/WX    TMP DP  RH WIND       PRES   REMARKS
GOODLAND       CLOUDY    81  22  11 N13       30.04F
HAYS           SUNNY     82  39  21 NW3       29.95F
HILL CITY      CLOUDY    84  30  14 N13G20    29.98S
RUSSELL        MOSUNNY   82  44  26 SW12      29.93F
$$

KSZ061>065-074>080-084>089-182100-
SOUTHWEST KANSAS

CITY           SKY/WX    TMP DP  RH WIND       PRES   REMARKS
DODGE CITY     SUNNY     88  29  12 CALM      29.99F
ELKHART          N/A     84  40  21 SE2         N/A
GARDEN CITY    SUNNY     85  31  14 VRB5      29.99F
GREAT BEND     SUNNY     81  46  29 SW5       29.97F
LIBERAL        SUNNY     82  41  23 CALM      30.00F
PRATT          SUNNY     79  44  28 S9        29.98F
$$

KSZ066>073-081>083-090>101-182100-
SOUTHEAST KANSAS

CITY           SKY/WX    TMP DP  RH WIND       PRES   REMARKS
CHANUTE        CLOUDY    73  50  44 S13       30.03F
COFFEYVILLE    SUNNY     76  51  41 S15G23    30.03F
HUTCHINSON     SUNNY     78  50  37 S10       29.97F
MEDICINE LODGE   N/A     80  47  31 S9        29.96F
NEWTON         SUNNY     73  49  42 SW15      30.00F
PARSONS        SUNNY     75  49  39 S14G21    30.04S
WICHITA INTL   MOSUNNY   76  49  38 S13       29.98F
WICHITA JABRA  SUNNY     76  49  38 S13G22    29.99S
WICHITA MCCONL SUNNY     77  47  34 SW13G21   29.99F
WINFIELD       SUNNY     78  49  35 S14       30.00F
$$

KSZ007>012-019>026-033>040-048>060-102>105-182100-
NORTHEAST KANSAS

CITY           SKY/WX    TMP DP  RH WIND       PRES   REMARKS
CONCORDIA      MOSUNNY   75  51  43 S10       29.94S
EMPORIA        SUNNY     77  49  37 S17G23    29.98F
LAWRENCE       MOSUNNY   75  51  43 S15G23    29.98F
MANHATTAN      PTSUNNY   76  50  40 SW14      29.95F
MARYSVILLE     CLOUDY    72  50  46 S13       29.94S
OLATHE IND     SUNNY     73  50  44 S15       30.01F
OLATHE EXE     SUNNY     72  48  42 S14G22    30.00F
SALINA         PTSUNNY   75  51  43 S13       29.95F
TOPEKA BILLARD MOSUNNY   75  49  39 S13G22    29.96F
TOPEKA FORBES  SUNNY     76  49  38 S15       29.97F
$$




USA.gov is the U.S. government's official web portal to all federal, state and local government web resources and services.